Malaga, Spain

2:03 AM CET on February 20, 2017 (GMT +0100)
Malaga

Weather History for LEMG - December, 2013

Change the Weather History Date:

Monday, December 23, 2013

  Actual Average Record
Temperature  
Mean Temperature 55 °F -  
Max Temperature 64 °F 59 °F 66 °F (2015)
Min Temperature 46 °F 44 °F 33 °F (1999)
Degree Days  
Heating Degree Days 10    
Growing Degree Days 5 (Base 50)    
Moisture  
Dew Point 48 °F    
Average Humidity 82    
Maximum Humidity 94    
Minimum Humidity 55    
Precipitation  
Precipitation 0.00 in 0.11 in - ()
Sea Level Pressure  
Sea Level Pressure 30.35 in    
Wind  
Wind Speed 6 mph ()    
Max Wind Speed 10 mph    
Max Gust Speed -    
Visibility 6.4 miles    
Events      
Averages and records for this station are not official NWS values.
T = Trace of Precipitation, MM = Missing Value Source: Averaged Metar Reports

Daily Weather History Graph

Daily Weather History Graph

Search for Another Location

Airport or City:

Trip Planner

Search our weather history database for the weather conditions in past years. The results will help you decide how hot, cold, wet, or windy it might be!

Date:

Astronomy

Dec. 23, 2013 Rise Set
Actual Time 8:27 AM CET 6:06 PM CET
Civil Twilight 7:58 AM CET 6:35 PM CET
Nautical Twilight 7:26 AM CET 7:08 PM CET
Astronomical Twilight 6:54 AM CET 7:39 PM CET
Moon 11:54 PM CET (12/23) 11:54 AM CET (12/23)
Length of Visible Light 10h 37m
Length of Day
9h 39m
Waning Gibbous, 70% of the Moon is Illuminated
Dec 23
Waning Gibbous
Dec 25
Last Quarter
Jan 1
New
Jan 8
First Quarter
Jan 16
Full

Hourly Weather History & Observations

Time (CET) Temp. Windchill Dew Point Humidity Pressure Visibility Wind Dir Wind Speed Gust Speed Precip Events Conditions
12:00 AM 49 °F - 47 °F 89% 30.45 in - WNW 6.9 mph - -  
12:00 AM 48.2 °F - 46.4 °F 93% 30.42 in 6.2 mi WNW 6.9 mph - N/A   Partly Cloudy
12:30 AM 48.2 °F - 44.6 °F 87% 30.42 in 6.2 mi WNW 5.8 mph - N/A   Scattered Clouds
1:00 AM 49 °F - 46 °F 87% 30.44 in 9 mi WNW 9.2 mph - -   Partly Cloudy
1:00 AM 48.2 °F - 46.4 °F 93% 30.42 in 6.2 mi WNW 8.1 mph - N/A   Scattered Clouds
1:30 AM 48.2 °F - 46.4 °F 93% 30.42 in 6.2 mi WNW 6.9 mph - N/A   Mostly Cloudy
2:00 AM 50 °F - 47 °F 87% 30.42 in - WNW 8.1 mph - -  
2:00 AM 50.0 °F - 46.4 °F 87% 30.42 in 6.2 mi WNW 8.1 mph - N/A   Mostly Cloudy
2:30 AM 50.0 °F - 48.2 °F 94% 30.39 in 6.2 mi WNW 6.9 mph - N/A   Mostly Cloudy
3:00 AM 51 °F - 48 °F 84% 30.41 in - WNW 8.1 mph - -  
3:00 AM 50.0 °F - 48.2 °F 94% 30.39 in 6.2 mi WNW 6.9 mph - N/A   Mostly Cloudy
3:30 AM 50.0 °F - 46.4 °F 87% 30.39 in 6.2 mi WNW 8.1 mph - N/A   Mostly Cloudy
4:00 AM 51 °F - 47 °F 80% 30.41 in 9 mi WNW 10.4 mph - -   Mostly Cloudy
4:00 AM 50.0 °F - 46.4 °F 87% 30.39 in 6.2 mi WNW 9.2 mph - N/A   Mostly Cloudy
4:30 AM 48.2 °F - 46.4 °F 93% 30.39 in 6.2 mi WNW 8.1 mph - N/A   Mostly Cloudy
5:00 AM 50 °F - 46 °F 83% 30.40 in - WNW 9.2 mph - -  
5:00 AM 48.2 °F - 46.4 °F 93% 30.39 in 6.2 mi WNW 8.1 mph - N/A   Mostly Cloudy
5:30 AM 48.2 °F - 46.4 °F 93% 30.39 in 6.2 mi WNW 9.2 mph - N/A   Mostly Cloudy
6:00 AM 49 °F - 46 °F 85% 30.39 in - WNW 9.2 mph - -  
6:00 AM 48.2 °F - 46.4 °F 93% 30.36 in 6.2 mi WNW 9.2 mph - N/A   Mostly Cloudy
6:30 AM 48.2 °F - 44.6 °F 87% 30.36 in 6.2 mi WNW 5.8 mph - N/A   Mostly Cloudy
7:00 AM 49 °F - 46 °F 86% 30.38 in 9 mi WNW 10.4 mph - -   Mostly Cloudy
7:00 AM 48.2 °F - 44.6 °F 87% 30.36 in 6.2 mi WNW 9.2 mph - N/A   Mostly Cloudy
7:30 AM 48.2 °F - 44.6 °F 87% 30.36 in 6.2 mi WNW 8.1 mph - N/A   Mostly Cloudy
8:00 AM 48 °F - 46 °F 89% 30.39 in - WNW 9.2 mph - -  
8:00 AM 48.2 °F - 44.6 °F 87% 30.36 in 6.2 mi WNW 8.1 mph - N/A   Mostly Cloudy
8:30 AM 46.4 °F 43.5 °F 44.6 °F 93% 30.36 in 6.2 mi NW 5.8 mph - N/A   Mostly Cloudy
9:00 AM 49 °F - 47 °F 88% 30.39 in - WNW 9.2 mph - -  
9:00 AM 46.4 °F 42.4 °F 44.6 °F 93% 30.39 in 6.2 mi WNW 8.1 mph - N/A   Mostly Cloudy
9:30 AM 48.2 °F - 46.4 °F 93% 30.39 in 5.0 mi NW 6.9 mph - N/A   Mostly Cloudy
10:00 AM 51 °F - 47 °F 83% 30.40 in 5 mi WNW 9.2 mph - -   Mist
10:00 AM 50.0 °F - 48.2 °F 94% 30.39 in 5.0 mi NW 8.1 mph - N/A   Scattered Clouds
10:30 AM 50.0 °F - 48.2 °F 94% 30.39 in 5.0 mi WNW 10.4 mph - N/A   Scattered Clouds
11:00 AM 53 °F - 47 °F 75% 30.41 in - WNW 8.1 mph - -  
11:00 AM 51.8 °F - 48.2 °F 88% 30.39 in 6.2 mi NW 8.1 mph - N/A   Partly Cloudy
11:30 AM 53.6 °F - 48.2 °F 82% 30.39 in 6.2 mi WNW 8.1 mph - N/A   Partly Cloudy
12:00 PM 57 °F - 48 °F 63% 30.40 in - WNW 5.8 mph - -  
12:00 PM 55.4 °F - 48.2 °F 77% 30.39 in 6.2 mi WNW 5.8 mph - N/A   Partly Cloudy
12:30 PM 57.2 °F - 48.2 °F 72% 30.36 in 6.2 mi Variable 2.3 mph - N/A   Partly Cloudy
1:00 PM 62 °F - 53 °F 63% 30.36 in 7 mi ESE 4.6 mph - -   Partly Cloudy
1:00 PM 59.0 °F - 51.8 °F 77% 30.36 in 6.2 mi SSE 2.3 mph - N/A   Partly Cloudy
1:30 PM 60.8 °F - 51.8 °F 72% 30.33 in 6.2 mi SSE 6.9 mph - N/A   Partly Cloudy
2:00 PM 63 °F - 53 °F 60% 30.32 in - SSE 9.2 mph - -  
2:00 PM 60.8 °F - 51.8 °F 72% 30.30 in 6.2 mi SSE 9.2 mph - N/A   Partly Cloudy
2:30 PM 60.8 °F - 51.8 °F 72% 30.30 in 6.2 mi SSE 9.2 mph - N/A   Partly Cloudy
3:00 PM 63 °F - 53 °F 60% 30.31 in - SE 10.4 mph - -  
3:00 PM 60.8 °F - 51.8 °F 72% 30.30 in 6.2 mi SE 9.2 mph - N/A   Partly Cloudy
3:30 PM 60.8 °F - 51.8 °F 72% 30.27 in 6.2 mi SSE 9.2 mph - N/A   Partly Cloudy
4:00 PM 64 °F - 52 °F 56% 30.29 in 9 mi SSE 8.1 mph - -   Scattered Clouds
4:00 PM 60.8 °F - 51.8 °F 72% 30.27 in 6.2 mi SSE 5.8 mph - N/A   Partly Cloudy
4:30 PM 60.8 °F - 51.8 °F 72% 30.27 in 6.2 mi SSE 4.6 mph - N/A   Partly Cloudy
5:00 PM 64 °F - 52 °F 55% 30.29 in - SSE 4.6 mph - -  
5:00 PM 60.8 °F - 51.8 °F 72% 30.27 in 6.2 mi SSE 3.5 mph - N/A   Partly Cloudy
5:30 PM 60.8 °F - 51.8 °F 72% 30.27 in 6.2 mi South 4.6 mph - N/A   Partly Cloudy
6:00 PM 59 °F - 51 °F 68% 30.27 in - ENE 1.2 mph - -  
6:00 PM 59.0 °F - 51.8 °F 77% 30.27 in 6.2 mi ENE 1.2 mph - N/A   Partly Cloudy
6:30 PM 55.4 °F - 50.0 °F 82% 30.27 in - Variable 2.3 mph - N/A   Clear
7:00 PM 56 °F - 50 °F 73% 30.29 in 6 mi Calm Calm - -   Clear
7:00 PM 55.4 °F - 50.0 °F 82% 30.27 in - Variable 1.2 mph - N/A   Clear
7:30 PM 55.4 °F - 50.0 °F 82% 30.27 in 6.2 mi Calm Calm - N/A   Partly Cloudy
8:00 PM 55 °F - 50 °F 78% 30.29 in - Calm Calm - -  
8:00 PM 53.6 °F - 50.0 °F 88% 30.27 in 6.2 mi Calm Calm - N/A   Partly Cloudy
8:30 PM 51.8 °F - 48.2 °F 88% 30.27 in 6.2 mi Calm Calm - N/A   Partly Cloudy
9:00 PM 52 °F - 48 °F 82% 30.30 in - WNW 3.5 mph - -  
9:00 PM 51.8 °F - 48.2 °F 88% 30.27 in 6.2 mi WNW 3.5 mph - N/A   Partly Cloudy
9:30 PM 50.0 °F - 48.2 °F 94% 30.27 in 6.2 mi WNW 1.2 mph - N/A   Partly Cloudy
10:00 PM 51 °F - 48 °F 84% 30.30 in 9 mi WNW 1.2 mph - -   Scattered Clouds
10:00 PM 48.2 °F - 46.4 °F 93% 30.27 in 6.2 mi WNW 1.2 mph - N/A   Partly Cloudy
10:30 PM 48.2 °F - 46.4 °F 93% 30.30 in 6.2 mi West 3.5 mph - N/A   Partly Cloudy
11:00 PM 51 °F - 47 °F 80% 30.30 in - WNW 3.5 mph - -  
11:00 PM 48.2 °F - 46.4 °F 93% 30.30 in 6.2 mi WNW 3.5 mph - N/A   Partly Cloudy
11:30 PM 48.2 °F - 44.6 °F 87% 30.27 in 6.2 mi West 4.6 mph - N/A   Scattered Clouds